Ozona, TX

9:49 PM CDT on August 21, 2017 (GMT -0500)
Ozona Municipal

Weather History for KOZA - May, 2013

Change the Weather History Date:

Friday, May 24, 2013

  Actual Average Record
Temperature  
Mean Temperature 71 °F -  
Max Temperature 78 °F 88 °F 100 °F (2012)
Min Temperature 64 °F 62 °F 44 °F (2017)
Cooling Degree Days 6    
Growing Degree Days 21 (Base 50)    
Moisture  
Dew Point 60 °F    
Average Humidity 73    
Maximum Humidity 88    
Minimum Humidity 44    
Precipitation  
Precipitation 0.17 in - - ()
Sea Level Pressure  
Sea Level Pressure 30.10 in    
Wind  
Wind Speed 20 mph (ESE)    
Max Wind Speed 37 mph    
Max Gust Speed 50 mph    
Visibility 10 miles    
Events Rain , Thunderstorm    
Averages and records for this station are not official NWS values.
T = Trace of Precipitation, MM = Missing Value Source: NWS Daily Summary

Daily Weather History Graph

Daily Weather History Graph

Search for Another Location

Airport or City:

Trip Planner

Search our weather history database for the weather conditions in past years. The results will help you decide how hot, cold, wet, or windy it might be!

Date:

Astronomy

May. 24, 2013 Rise Set
Actual Time 6:45 AM CDT 8:38 PM CDT
Civil Twilight 6:18 AM CDT 9:05 PM CDT
Nautical Twilight 5:45 AM CDT 9:38 PM CDT
Astronomical Twilight 5:11 AM CDT 10:12 PM CDT
Moon 8:24 PM CDT (5/24) 6:15 AM CDT (5/24)
Length of Visible Light 14h 47m
Length of Day
13h 53m
Full, 100% of the Moon is Illuminated
May 24
Full
May 24
Full
May 31
Last Quarter
Jun 8
New
Jun 16
First Quarter

Hourly Weather History & Observations

Time (CDT) Temp. Dew Point Humidity Pressure Visibility Wind Dir Wind Speed Gust Speed Precip Events Conditions
12:15 AM 66.2 °F 60.8 °F 83% 30.11 in 2.5 mi North 24.2 mph 41.4 mph 0.14 in Rain , Thunderstorm Heavy Thunderstorms and Rain
12:35 AM 64.4 °F 60.8 °F 88% 30.13 in 10.0 mi NNE 28.8 mph 39.1 mph 0.14 in Rain , Thunderstorm Thunderstorms and Rain
12:55 AM 64.4 °F 60.8 °F 88% 30.09 in 10.0 mi NNE 36.8 mph 49.5 mph 0.14 in Rain , Thunderstorm Light Thunderstorms and Rain
1:15 AM 64.4 °F 60.8 °F 88% 30.12 in 10.0 mi NNE 32.2 mph 47.2 mph N/A Thunderstorm Clear
1:35 AM 64.4 °F 60.8 °F 88% 30.11 in 10.0 mi NE 28.8 mph 42.6 mph N/A Rain , Thunderstorm Light Thunderstorms and Rain
1:55 AM 64.4 °F 59.0 °F 83% 30.11 in 10.0 mi NE 24.2 mph 35.7 mph N/A Rain , Thunderstorm Light Thunderstorms and Rain
2:15 AM 64.4 °F 59.0 °F 83% 30.12 in 10.0 mi NE 20.7 mph 29.9 mph N/A Rain , Thunderstorm Light Thunderstorms and Rain
2:35 AM 64.4 °F 60.8 °F 88% 30.08 in 7.0 mi ENE 23.0 mph 33.4 mph 0.03 in Rain , Thunderstorm Light Thunderstorms and Rain
2:55 AM 64.4 °F 60.8 °F 88% 30.08 in 10.0 mi ENE 23.0 mph 34.5 mph 0.03 in Thunderstorm Thunderstorm
3:15 AM 66.2 °F 60.8 °F 83% 30.07 in 10.0 mi ENE 17.3 mph 32.2 mph N/A   Clear
3:35 AM 64.4 °F 60.8 °F 88% 30.08 in 10.0 mi NE 11.5 mph 20.7 mph N/A   Clear
3:55 AM 64.4 °F 60.8 °F 88% 30.08 in 10.0 mi NNE 10.4 mph - N/A Thunderstorm Thunderstorm
10:15 AM 68.0 °F 59.0 °F 73% 30.10 in 10.0 mi SSW 6.9 mph - N/A   Clear
11:15 AM 69.8 °F 59.0 °F 68% 30.14 in 10.0 mi SSE 5.8 mph - N/A   Clear
12:15 PM 71.6 °F 59.0 °F 64% 30.15 in 10.0 mi SSE 12.7 mph 16.1 mph N/A   Clear
12:35 PM 69.8 °F 59.0 °F 68% 30.15 in 10.0 mi SE 11.5 mph - N/A   Clear
1:15 PM 69.8 °F 59.0 °F 68% 30.15 in 10.0 mi SSE 10.4 mph - N/A   Clear
1:35 PM 69.8 °F 60.8 °F 73% 30.15 in 10.0 mi South 8.1 mph - N/A   Clear
3:15 PM 73.4 °F 60.8 °F 65% 30.09 in 10.0 mi SSE 6.9 mph - N/A   Clear
4:55 PM 75.2 °F 60.8 °F 61% 30.05 in 10.0 mi ESE 9.2 mph - N/A   Clear
5:15 PM 77.0 °F 59.0 °F 54% 30.05 in 10.0 mi SE 10.4 mph - N/A   Clear
5:35 PM 78.8 °F 59.0 °F 51% 30.05 in 10.0 mi SSE 13.8 mph 17.3 mph N/A   Clear
6:35 PM 78.8 °F 59.0 °F 51% 30.04 in 10.0 mi ESE 16.1 mph 23.0 mph N/A   Clear
6:55 PM 78.8 °F 55.4 °F 44% 30.04 in 10.0 mi SE 13.8 mph 19.6 mph N/A   Clear
7:35 PM 77.0 °F 59.0 °F 54% 30.06 in 10.0 mi SE 15.0 mph 21.9 mph N/A   Clear
9:15 PM 71.6 °F 59.0 °F 64% 30.09 in 10.0 mi ESE 12.7 mph 21.9 mph N/A   Clear
9:35 PM 69.8 °F 59.0 °F 68% 30.10 in 10.0 mi ESE 9.2 mph - N/A   Clear
10:15 PM 69.8 °F 60.8 °F 73% 30.12 in 10.0 mi ESE 8.1 mph - N/A   Clear
10:35 PM 69.8 °F 60.8 °F 73% 30.13 in 10.0 mi SE 11.5 mph - N/A   Scattered Clouds
11:15 PM 68.0 °F 62.6 °F 83% 30.14 in 10.0 mi SE 9.2 mph - N/A   Scattered Clouds
11:35 PM 68.0 °F 62.6 °F 83% 30.14 in 10.0 mi SE 9.2 mph - N/A   Scattered Clouds